STARLINK-4499 (53402 NORAD) Tracking and Keplerian Element Data

This shows tracking and keplerian element data for the satellite.

Feedback or suggestion? Click here.




ElementValue
Catalog53402
NameSTARLINK-4499
Epoch Orbit1663
Epoch Day324.8901244
Epoch Year2022
RAAN132.6621
Inclination53.216
Eccentricity0.0001698
Argument of Perigee56.1491
Mean Anonmoly303.9663
Mean Motion15.08854833
Decay Rate4.05E-05
L11 53402U 22097Q 22324.89012440 .00004050 00000+0 27233-3 0 9993
L22 53402 53.2160 132.6621 0001698 56.1491 303.9663 15.08854833 16635



Live tracking and technical data element details for STARLINK-4499 (NORAD 53402). STARLINK-4499 can be tracked NOW for your location showing map with azimuth and elevation plus other details from your city location.







IsCatalogInMostPopularTable: catalog: 53402, numindb: 6
Update: records affected: 1



GetName: 53402 STARLINK-4499

Hit Count: updated at: Thu, 08 Dec 2022 19:29:05 GMT